Weather Service Report


105 
ASUS41 KAKQ 301510
RWRAKQ

REGIONAL WEATHER ROUNDUP
NATIONAL WEATHER SERVICE WAKEFIELD VA
1100 AM EDT THU OCT 30 2014

Note: "fair" indicates few or no clouds below 12,000 feet with no
significant weather and/or obstructions to visibility. * = Denotes
station may not report precipitation (e.g., rain,snow,etc.),
thunder or fog.

VAZ042-051-052>054-056-301600-
NORTHERN VIRGINIA
  
CITY           SKY/WX    TMP DP  RH WIND       PRES   REMARKS
WASH NATIONAL  MOSUNNY   57  38  48 NW14      30.08S                  
DULLES         SUNNY     53  38  56 NW9       30.09S                  
FORT BELVOIR   SUNNY     57  38  48 NW16      30.08S                  
QUANTICO       MOSUNNY   58  36  43 N13G26    30.08F                  
FREDERICKSBRG* PTSUNNY   54  41  61 CALM      30.08S                  
STAFFORD*      MOSUNNY   56  39  53 NW12G17   30.11F                  
WARRENTON      PTSUNNY   58  44  61 NW10      30.09R                  
CULPEPER*      SUNNY     55  39  54 NW12      30.10R                  
MANASSAS*      MOSUNNY   55  43  62 W6        30.09                   
LEESBURG*      SUNNY     54  41  62 NW13G18   30.09S                  
WINCHESTER     CLOUDY    54  34  47 NW10      30.08S                  
FRONT ROYAL*   SUNNY     50  41  71 N7        30.08S                  
LURAY*         CLOUDY    46  46 100 CALM      30.10S                  
$$

VAZ048-049-060>072-079>083-301600-
CENTRAL AND SOUTH CENTRAL VIRGINIA...AND NORTH CENTRAL NORTH CAROLINA
  
CITY           SKY/WX    TMP DP  RH WIND       PRES   REMARKS
RICHMOND       MOSUNNY   58  40  51 N13       30.07S                  
CHESTERFIELD*  SUNNY     57  36  44 NE9       30.08S                  
PETERSBURG*    SUNNY     58  41  53 NE9       30.08R                  
HANOVER        SUNNY     56  41  57 NW8       30.09S                  
TAPPAHANNOCK*  SUNNY     58  35  42 NW10G16   30.07S                  
CHARLOTTSVILLE MOSUNNY   55  44  66 NE7       30.08S                  
ORANGE*        SUNNY     54  45  71 NW7       30.09S                  
LOUISA*        SUNNY     54  43  66 N6        30.07S                  
FARMVILLE*     SUNNY     55  45  67 N3        30.06S                  
CREWE*         SUNNY     55  44  67 CALM      30.07S                  
FORT PICKETT*  SUNNY     55  47  73 NE3       30.07S                  
LUNENBURG*     SUNNY     55  48  76 N6        30.07R                  
SOUTH HILL*    MOSUNNY   61  54  77 N7        30.11S                  
LAWRENCEVILLE* SUNNY     57  51  80 N5        30.06F                  
ROANOKE RAPIDS SUNNY     59  50  72 NE9       30.06S                  
RALEIGH        MOSUNNY   61  49  64 N5        30.06F                  
$$

VAZ088>098-301600-
SOUTHEAST VIRGINIA
  
CITY           SKY/WX    TMP DP  RH WIND       PRES   REMARKS
NORFOLK        MOSUNNY   60  51  72 N10       30.04S                  
VIRGINIA BEACH PTSUNNY   62  52  69 N12       30.03S                  
NORFOLK NAVAL  MOSUNNY   63  51  65 N10       30.06S                  
WEST POINT*    SUNNY     61  45  54 N7        30.08R                  
NEWPORT NEWS   SUNNY     63  50  62 N7        30.05R                  
LANGLEY AFB    SUNNY     59  51  75 N7        30.05R                  
FORT EUSTIS    SUNNY     59  48  67 N6        30.04R                  
WILLIAMSBURG*  SUNNY     57  54  88 N6        30.06S                  
HR EXEC AP*    PTSUNNY   57  54  88 N5        30.07R                  
FRANKLIN*      MOSUNNY   59  54  82 NW6       30.06S                  
WAKEFIELD      SUNNY     58  47  66 NW8       30.06S                  
$$

VAZ020-022-025-037-045-301600-
WEST CENTRAL AND SOUTHWEST VIRGINIA
  
CITY           SKY/WX    TMP DP  RH WIND       PRES   REMARKS
STAUNTON*      CLOUDY    47  39  74 CALM      30.11S                  
HOT SPRINGS VA PTSUNNY   38  32  77 NW10      30.04R                  
LYNCHBURG      SUNNY     57  36  45 N7        30.08F                  
DANVILLE       SUNNY     60  40  47 NW6       30.08S                  
SOUTH BOSTON*  NOT AVBL                                               
MARTINSVILLE   SUNNY     57  39  50 NW3       30.11F                  
ROANOKE        MOSUNNY   52  35  52 CALM      30.11F                  
BLACKSBURG     SUNNY     48  39  71 SW3       30.11S                  
DUBLIN*        SUNNY     49  37  65 W3        30.11F                  
MARION*        MOSUNNY   47  39  75 CALM      30.12F                  
HILLSVILLE*    SUNNY     43  36  76 N9        30.08F                  
RICHLANDS*     MOSUNNY   44  39  82 CALM      30.11F                  
WISE*          SUNNY     45  32  61 N8        30.12S                  
ABINGDON*      PTSUNNY   44  44 100 SE3       30.11S                  
$$

MDZ021>025-VAZ099-100-301600-
SOUTHERN MARYLAND AND THE DELMARVA PENINSULA
  
CITY           SKY/WX    TMP DP  RH WIND       PRES   REMARKS
PATUXENT RIVER PTSUNNY   56  39  53 N12       30.06S                  
BAY BRIDGE APT   N/A     54  41  62 NW7       30.06F                  
LEONARDTOWN    CLOUDY    52  39  62 NW5       30.08R                  
DOVER          CLOUDY    53  44  72 NW10      30.02S                  
GEORGETOWN     PTSUNNY   56  41  57 N8        30.05S                  
EASTON         PTSUNNY   55  45  67 N8        30.09S                  
CAMBRIDGE      MOSUNNY   55  43  62 N9        30.05S                  
SALISBURY      SUNNY     61  44  53 N12       30.04R                  
OCEAN CITY     SUNNY     61  50  67 NW6       30.02S                  
WALLOPS ISLAND SUNNY     60  50  69 N8        30.03F                  
ACCOMACK*      MOSUNNY   61  50  67 NW12      30.04R                  
$$

NCZ012>017-030>032-301600-
EASTERN NORTH CAROLINA
  
CITY           SKY/WX    TMP DP  RH WIND       PRES   REMARKS
ELIZABETH CITY MOSUNNY   62  53  72 N13       30.03S                  
AHOSKIE*       NOT AVBL                                               
EDENTON*       MOSUNNY   59  54  83 N9        30.04S                  
CURRITUCK*     MOSUNNY   61  49  65 N9G16     30.04S                  
KILL DEVIL HLS MOSUNNY   64  50  60 NE10G18   30.01S                  
MANTEO         MOSUNNY   64  50  60 N14       30.02S                  
CAPE HATTERAS  PTSUNNY   65  56  72 NE13G21   29.99R                  
TARBORO*       SUNNY     60  53  79 N5        30.06S                  
GOLDSBORO      SUNNY     63  52  68 NE12      30.02F                  
WASHINGTON     SUNNY     60  52  74 NE8       30.04S                  
GREENVILLE     MOSUNNY   59  52  77 N5        30.06S                  
NEW BERN       PTSUNNY   63  53  70 NE13      30.03S                  
WILMINGTON     PTSUNNY   62  53  72 N12       30.00S                  
$$

VAZ048-301600-
ELSEWHERE
  
CITY           SKY/WX    TMP DP  RH WIND       PRES   REMARKS
HARRISBURG PA  MOSUNNY   53  40  61 NW13      30.05S                  
BALTIMORE      MOSUNNY   55  40  56 NW10G18   30.06S                  
ANNAPOLIS      SUNNY     55  41  59 NW13      30.06S                  
ANDREWS AFB    SUNNY     56  38  50 NW9       30.07R                  
WILMINGTON DE  MOSUNNY   55  43  63 N8        30.04S                  
PHILADELPHIA   MOSUNNY   56  39  53 N10       30.03S                  
WILDWOOD NJ*   PTSUNNY   55  39  54 NW10      30.04S                  
ATLANTIC CITY  CLOUDY    55  43  63 N10       30.02S                  
HENDERSON NC   SUNNY     58  47  66 N5        30.07S                  
GREENSBORO     SUNNY     59  39  47 NE7       30.07F                  
ROCKY MOUNT    SUNNY     63  50  62 NE10      30.05S                  
FAYETTEVILLE   SUNNY     65  49  56 N13       30.04S                  
CHARLOTTE      MOSUNNY   62  36  37 NE12      30.08S                  
$$

VAZ100-301600-
MARINE
  
STATION/POSITION TIME  TEMP    WIND        PRES    WAVE   SWELL
                       AIR SEA DIR/SP/G            HT/PER HT/PER
                 (UTC) (F)     (DEG/KT/KT) (MB)    (FT/S) (FT/S)
44066 TX TWR #4  1500   59 64  320/  4/  6 1015.0S   3/ 4   2/ 4
CAPE MAY NJ      1500   57 64  350/  5/ 10 1016.5S
LEWES DE         1500   54 61  330/ 11/ 12 1016.9S
15NM E FENWICK I 1500   59 63              1016.1S   2/ 4
OCEAN-CITY-INLET 1500   58 62  360/  6/  7 1016.2S
WACHAPREAGUE VA  1500   61 62  340/  5/  9 1016.9R
THOMAS POINT MD  1500   52 61  360/ 10/ 13 1019.0S
GOOSES REEF MD   1500   54     360/ 12/ 14 1018.4S
COVE POINT MD    1500   53     360/ 15/ 19 1017.9S
SOLOMONS ISLAND  1500      63                N/A
BISHOPS HEAD MD  1500   58 60  340/ 11/ 14 1016.9R
PINEY POINT MD   1500          360/ 14/ 16   N/A
POTOMAC MD       1500   58      10/ 12/ 16 1017.0F
CAMBRIDGE MD     1500   55 60  350/ 12/ 16 1017.4S
LEWISETTA VA     1500   56 62  350/ 12/ 16 1017.6R
RAPPAHANNOCK LGT 1500          350/ 18/ 19 1017.6R
STINGRAY PT      1500   58      10/ 16/ 19 1017.8R
YORK RVR RNG VA  1500   57      10/ 10/ 11 1017.0R
YORKTOWN VA      1500   57 64  330/  6/  8 1017.4R
JAMESTOWN VA     1500   55     360/  4/  6   N/A
DOMINION TERM VA 1500   58     340/  8/ 10 1017.4S
KIPTOPEKE VA     1500      67  350/  9/ 12   N/A
CHES BAY BRIDGE  1500   58 63  330/ 10/ 13 1016.8R
CHESAPEAKE LGHT  1400   60     360/ 10/ 12 1017.6R
WILLOUBY STN VA  1500   58     360/  9/ 10 1016.0R
S CRANEY ISL VA  1500          320/  7/  9 1017.1S
CAPE HENRY BUOY  1500      65                N/A     3/ 5
1ST LANDING BUOY 1500   59     340/ 12/ 14 1016.8R
CAPE CHARLES BUO 1500      66                N/A     3/ 5   2/ 5
64NM E OF VA BCH 1500   62 67   30/ 16/ 19 1015.5R   4/ 5
DUCK PIER NC     1500   62 67   20/ 12/ 17 1015.6S
44100 DUCK FRF   1500      67                N/A     4/ 6
OREGON INLET NC  1500   62 67   30/ 14/ 19 1016.0R
HATTERAS NC      1500   63 70   20/ 19/ 22 1015.8R
DIAMOND SHLS NC  1500   67      10/ 17/ 19 1014.5F   4/ 6
CAPE LOOKOUT NC  1500   63      10/ 15/ 18 1015.6R
$$

Return to Home page


Western Regional Climate Center, wrcc@dri.edu